User: anonymous   Login
Location: St. Louis
(38.6270°N, 90.1994°W)
Time: 08:53:21
(UTC-05:00)
Language:

COSMOS 2251 DEB - Orbit

View from above orbital plane
View from above orbital plane
View from above satellite
View from above satellite

Ground track
Ground track

The orbit data is extracted from the following two-line orbital elements,

1 34853U 93036ABX 22278.12682942  .00045276  00000-0  45274-2 0  9997
2 34853  74.0678 170.5087 0038827 129.5784 230.8838 14.90653710723054
Epoch (UTC): 05 October 2022 03:02:38
Eccentricity: 0.0038827
inclination: 74.0678°
perigee height: 569 km
apogee height: 623 km
right ascension of ascending node: 170.5087°
argument of perigee: 129.5784°
revolutions per day: 14.90653710
mean anomaly at epoch: 230.8838°
orbit number at epoch: 72305

The dashed part of the orbit path shows where the satellite is in the earth's shadow,  

DLR